When you browse on this site, cookies collect data to enhance your experience and personalize the content and advertising you see.
Visit our Privacy Policy to learn more. By continuing to use the site, you agree to this use of cookies and data.
  • In Deutschland
  • Länderverzeichnis
  • Für 7 Tage
  • Wassertemperatur
  • Satellitenkarten
  • Wetterkarte
  • Widgets
  • user-avatar
    Anmelden

    Stündliche Wetter Bryski

    Heute, 24 Mai, Freitag

    Zeit Temperatur Niederschläge Wind Luftdruck Luftfeuchtigkeit
    00:00 +9°C° 0 mm 2 m/S 750 mmHg 94%
    01:00 +9°C° 0 mm 2 m/S 750 mmHg 94%
    02:00 +9°C° 0 mm 2 m/S 750 mmHg 92%
    03:00 +9°C° 0 mm 2 m/S 750 mmHg 91%
    04:00 +10°C° 0 mm 1 m/S 750 mmHg 89%
    05:00 +10°C° 0 mm 2 m/S 750 mmHg 84%
    06:00 +13°C° 0 mm 2 m/S 750 mmHg 80%
    07:00 +14°C° 0 mm 2 m/S 750 mmHg 75%
    08:00 +16°C° 0 mm 2 m/S 750 mmHg 71%
    09:00 +17°C° 0 mm 2 m/S 750 mmHg 68%
    10:00 +18°C° 0 mm 2 m/S 750 mmHg 64%
    11:00 +18°C° 0 mm 2 m/S 750 mmHg 64%
    12:00 +19°C° 0 mm 2 m/S 749 mmHg 63%
    13:00 +19°C° 0 mm 2 m/S 749 mmHg 62%
    14:00 +20°C° 0 mm 2 m/S 749 mmHg 61%
    15:00 +20°C° 0 mm 2 m/S 749 mmHg 60%
    16:00 +21°C° 0 mm 1 m/S 748 mmHg 59%
    17:00 +20°C° 0 mm 1 m/S 748 mmHg 63%
    18:00 +19°C° 0 mm 1 m/S 748 mmHg 68%
    19:00 +18°C° 0 mm 1 m/S 748 mmHg 72%
    20:00 +16°C° 0 mm 1 m/S 748 mmHg 74%
    21:00 +14°C° 0 mm 1 m/S 748 mmHg 76%
    22:00 +13°C° 0 mm 1 m/S 748 mmHg 77%
    23:00 +12°C° 0 mm 1 m/S 747 mmHg 77%

    Morgen, 25 Mai, Samstag

    Zeit Temperatur Niederschläge Wind Luftdruck Luftfeuchtigkeit
    00:00 +12°C° 0 mm 2 m/S 747 mmHg 77%
    01:00 +10°C° 0 mm 2 m/S 747 mmHg 77%
    02:00 +10°C° 0 mm 2 m/S 747 mmHg 77%
    03:00 +10°C° 0 mm 2 m/S 747 mmHg 77%
    04:00 +10°C° 0 mm 2 m/S 747 mmHg 77%
    05:00 +12°C° 0 mm 2 m/S 747 mmHg 75%
    06:00 +13°C° 0 mm 3 m/S 747 mmHg 74%
    07:00 +14°C° 0 mm 3 m/S 747 mmHg 72%
    08:00 +16°C° 0 mm 3 m/S 747 mmHg 72%
    09:00 +17°C° 0 mm 3 m/S 747 mmHg 72%
    10:00 +18°C° 0 mm 4 m/S 747 mmHg 72%
    11:00 +19°C° 0.1 mm 4 m/S 747 mmHg 68%
    12:00 +20°C° 0.1 mm 5 m/S 747 mmHg 64%
    13:00 +20°C° 0.1 mm 6 m/S 747 mmHg 59%
    14:00 +20°C° 0 mm 5 m/S 747 mmHg 62%
    15:00 +19°C° 0 mm 5 m/S 747 mmHg 64%
    16:00 +17°C° 0 mm 5 m/S 747 mmHg 67%
    17:00 +17°C° 0 mm 4 m/S 747 mmHg 70%
    18:00 +16°C° 0 mm 3 m/S 747 mmHg 74%
    19:00 +14°C° 0 mm 3 m/S 748 mmHg 78%
    20:00 +14°C° 0 mm 2 m/S 748 mmHg 80%
    21:00 +12°C° 0 mm 2 m/S 748 mmHg 81%
    22:00 +10°C° 0 mm 2 m/S 748 mmHg 83%
    23:00 +10°C° 0 mm 2 m/S 748 mmHg 86%

    übermorgen, 26 Mai, Sonntag

    Zeit Temperatur Niederschläge Wind Luftdruck Luftfeuchtigkeit
    00:00 +9°C° 0 mm 2 m/S 748 mmHg 88%
    01:00 +8°C° 0 mm 2 m/S 748 mmHg 91%
    02:00 +8°C° 0 mm 2 m/S 748 mmHg 92%
    03:00 +8°C° 0 mm 2 m/S 748 mmHg 93%
    04:00 +7°C° 0 mm 2 m/S 748 mmHg 95%
    05:00 +9°C° 0 mm 3 m/S 748 mmHg 90%
    06:00 +11°C° 0 mm 3 m/S 748 mmHg 85%
    07:00 +12°C° 0 mm 3 m/S 748 mmHg 80%
    08:00 +14°C° 0 mm 4 m/S 748 mmHg 76%
    09:00 +15°C° 0 mm 5 m/S 747 mmHg 72%
    10:00 +16°C° 0 mm 5 m/S 747 mmHg 67%
    11:00 +17°C° 0.1 mm 6 m/S 747 mmHg 66%
    12:00 +17°C° 0.1 mm 6 m/S 747 mmHg 65%
    13:00 +19°C° 0.1 mm 6 m/S 747 mmHg 63%
    14:00 +19°C° 0.1 mm 6 m/S 747 mmHg 64%
    15:00 +19°C° 0.1 mm 6 m/S 746 mmHg 65%
    16:00 +17°C° 0.1 mm 6 m/S 746 mmHg 65%
    17:00 +16°C° 0 mm 5 m/S 746 mmHg 70%
    18:00 +16°C° 0 mm 3 m/S 746 mmHg 74%
    19:00 +15°C° 0 mm 2 m/S 746 mmHg 79%
    20:00 +14°C° 0 mm 2 m/S 746 mmHg 81%
    21:00 +13°C° 0 mm 2 m/S 747 mmHg 83%
    22:00 +12°C° 0 mm 2 m/S 747 mmHg 85%
    23:00 +12°C° 0 mm 2 m/S 747 mmHg 85%

    27 Mai, Montag

    Zeit Temperatur Niederschläge Wind Luftdruck Luftfeuchtigkeit
    00:00 +11°C° 0 mm 3 m/S 747 mmHg 85%
    01:00 +12°C° 0 mm 3 m/S 747 mmHg 85%
    02:00 +11°C° 0 mm 3 m/S 746 mmHg 87%
    03:00 +11°C° 0 mm 3 m/S 746 mmHg 90%
    04:00 +10°C° 0 mm 3 m/S 746 mmHg 92%
    05:00 +12°C° 0 mm 4 m/S 746 mmHg 87%
    06:00 +14°C° 0 mm 4 m/S 746 mmHg 82%
    07:00 +16°C° 0 mm 5 m/S 746 mmHg 78%
    08:00 +17°C° 0 mm 6 m/S 746 mmHg 73%
    09:00 +20°C° 0 mm 6 m/S 746 mmHg 69%
    10:00 +21°C° 0 mm 6 m/S 745 mmHg 64%
    11:00 +22°C° 0.5 mm 7 m/S 745 mmHg 65%
    12:00 +22°C° 0.5 mm 7 m/S 745 mmHg 66%
    13:00 +22°C° 0.5 mm 7 m/S 745 mmHg 66%
    14:00 +22°C° 0.9 mm 6 m/S 745 mmHg 70%
    15:00 +21°C° 0.9 mm 6 m/S 745 mmHg 74%
    16:00 +21°C° 0.9 mm 5 m/S 745 mmHg 78%
    17:00 +20°C° 0.5 mm 4 m/S 745 mmHg 81%
    18:00 +19°C° 0.5 mm 3 m/S 745 mmHg 83%
    19:00 +18°C° 0.5 mm 2 m/S 745 mmHg 86%
    20:00 +17°C° 0 mm 2 m/S 746 mmHg 87%
    21:00 +16°C° 0 mm 2 m/S 746 mmHg 88%
    22:00 +15°C° 0 mm 2 m/S 746 mmHg 89%
    23:00 +14°C° 0 mm 2 m/S 746 mmHg 91%

    28 Mai, Dienstag

    Zeit Temperatur Niederschläge Wind Luftdruck Luftfeuchtigkeit
    00:00 +13°C° 0 mm 2 m/S 746 mmHg 93%
    01:00 +13°C° 0 mm 2 m/S 746 mmHg 95%
    02:00 +13°C° 0 mm 2 m/S 746 mmHg 95%
    03:00 +11°C° 0 mm 3 m/S 746 mmHg 95%
    04:00 +11°C° 0 mm 3 m/S 746 mmHg 96%
    05:00 +12°C° 0 mm 3 m/S 746 mmHg 92%
    06:00 +13°C° 0 mm 4 m/S 746 mmHg 88%
    07:00 +14°C° 0 mm 4 m/S 746 mmHg 85%
    08:00 +14°C° 0.1 mm 5 m/S 746 mmHg 84%
    09:00 +14°C° 0.1 mm 5 m/S 745 mmHg 84%
    10:00 +15°C° 0.1 mm 5 m/S 745 mmHg 84%
    11:00 +14°C° 1.3 mm 5 m/S 745 mmHg 87%
    12:00 +14°C° 1.3 mm 5 m/S 744 mmHg 90%
    13:00 +13°C° 1.3 mm 5 m/S 744 mmHg 92%
    14:00 +13°C° 0.8 mm 5 m/S 744 mmHg 93%
    15:00 +13°C° 0.8 mm 5 m/S 744 mmHg 93%
    16:00 +13°C° 0.8 mm 5 m/S 744 mmHg 93%
    17:00 +13°C° 0.2 mm 5 m/S 744 mmHg 94%
    18:00 +12°C° 0.2 mm 5 m/S 744 mmHg 94%
    19:00 +12°C° 0.2 mm 5 m/S 744 mmHg 94%
    20:00 +12°C° 0.3 mm 5 m/S 744 mmHg 94%
    21:00 +12°C° 0.3 mm 5 m/S 744 mmHg 95%
    22:00 +12°C° 0.3 mm 5 m/S 744 mmHg 95%
    23:00 +12°C° 0.4 mm 5 m/S 744 mmHg 95%

    29 Mai, Mittwoch

    Zeit Temperatur Niederschläge Wind Luftdruck Luftfeuchtigkeit
    00:00 +12°C° 0.4 mm 5 m/S 744 mmHg 94%
    01:00 +12°C° 0.4 mm 5 m/S 744 mmHg 94%
    02:00 +10°C° 0.3 mm 5 m/S 744 mmHg 94%
    03:00 +10°C° 0.3 mm 5 m/S 744 mmHg 94%
    04:00 +11°C° 0.3 mm 4 m/S 744 mmHg 94%
    05:00 +12°C° 0.2 mm 4 m/S 745 mmHg 94%
    06:00 +12°C° 0.2 mm 4 m/S 745 mmHg 93%
    07:00 +12°C° 0.2 mm 4 m/S 745 mmHg 93%
    08:00 +13°C° 0.1 mm 5 m/S 745 mmHg 90%
    09:00 +14°C° 0.1 mm 5 m/S 746 mmHg 88%
    10:00 +15°C° 0.1 mm 5 m/S 746 mmHg 86%
    11:00 +15°C° 0 mm 4 m/S 746 mmHg 84%
    12:00 +17°C° 0 mm 4 m/S 746 mmHg 82%
    13:00 +17°C° 0 mm 4 m/S 746 mmHg 81%
    14:00 +17°C° 0.1 mm 3 m/S 747 mmHg 82%
    15:00 +17°C° 0.1 mm 3 m/S 747 mmHg 82%
    16:00 +17°C° 0.1 mm 2 m/S 747 mmHg 83%
    17:00 +16°C° 0.4 mm 3 m/S 748 mmHg 85%
    18:00 +14°C° 0.4 mm 3 m/S 748 mmHg 87%
    19:00 +13°C° 0.4 mm 4 m/S 748 mmHg 89%
    20:00 +13°C° 0.3 mm 4 m/S 749 mmHg 89%
    21:00 +12°C° 0.3 mm 4 m/S 749 mmHg 89%
    22:00 +11°C° 0.3 mm 4 m/S 750 mmHg 90%
    23:00 +11°C° 0.4 mm 4 m/S 750 mmHg 90%
    Mehr zeigen